カタログに戻る

STARLINK-30711

運用中通信VLEO
NORAD 57940·PAYLOAD·🇺🇸 United States

打ち上げ Sep 25, 2023 から Vandenberg Space Force Base

Loading…

次のパス (今後24時間)

TLE

最新Source: CelesTrak SupGP

元期: Sep 14, 2026, 21:23 UTC

1 57940C 23148F   26257.89145833  .00037434  00000+0  11058-2 0  2570
2 57940  53.1583 223.7864 0001442  97.6678 223.3412 15.34376075    17

AllMySatでSTARLINK-30711をリアルタイム追跡

Download on the App Store